Precipitable_Water
1.05 1.15 1.22 1.25 1.23 1.27 1.24 1.19 1.15 1.28 1.40 1.46 1.52 1.57 1.56 1.55 1.50 1.49 1.50 1.48 1.45 1.43 1.35 1.20 1.19 1.19 1.28 1.36 1.59 1.60 1.48 1.25 1.31 1.37 1.46 1.46 1.51 1.44 1.45 1.43 1.40 1.40 1.38
1.10 1.15 1.17 1.23 1.22 1.25 1.25 1.21 1.18 1.19 1.33 1.39 1.40 1.43 1.48 1.49 1.50 1.49 1.51 1.53 1.46 1.40 1.30 1.17 1.12 1.12 1.29 1.34 1.35 1.36 1.26 1.24 1.36 1.37 1.44 1.45 1.43 1.43 1.41 1.39 1.36 1.30 1.30
1.07 1.16 1.20 1.26 1.23 1.23 1.25 1.24 1.23 1.19 1.22 1.31 1.38 1.41 1.45 1.45 1.43 1.45 1.44 1.44 1.42 1.30 1.19 1.11 1.09 1.17 1.28 1.19 1.16 1.16 1.21 1.21 1.36 1.30 1.32 1.32 1.39 1.34 1.36 1.33 1.24 1.19 1.20
0.98 1.04 1.07 1.10 1.15 1.17 1.21 1.23 1.27 1.29 1.26 1.25 1.37 1.44 1.42 1.35 1.32 1.30 1.30 1.29 1.25 1.20 1.13 1.12 1.14 1.19 1.19 1.17 1.18 1.16 1.21 1.20 1.20 1.20 1.21 1.23 1.27 1.22 1.22 1.16 1.09 1.14 1.14
1.00 1.07 1.07 1.10 1.10 1.17 1.22 1.25 1.28 1.33 1.37 1.37 1.35 1.34 1.38 1.34 1.33 1.26 1.20 1.18 1.15 1.12 1.08 1.10 1.21 1.17 1.16 1.13 1.17 1.21 1.15 1.12 1.13 1.14 1.15 1.16 1.15 1.14 1.10 1.04 1.00 0.99 0.98
1.04 1.13 1.13 1.12 1.11 1.14 1.24 1.29 1.33 1.37 1.39 1.43 1.42 1.39 1.34 1.31 1.26 1.20 1.17 1.14 1.11 1.05 1.10 1.15 1.25 1.23 1.14 1.11 1.11 1.10 1.14 1.13 1.13 1.11 1.08 1.09 1.11 1.04 0.98 0.91 0.88 0.85 0.86
1.02 1.11 1.17 1.14 1.13 1.16 1.23 1.34 1.39 1.45 1.43 1.44 1.42 1.46 1.40 1.33 1.30 1.27 1.20 1.21 1.26 1.28 1.21 1.16 1.15 1.26 1.16 1.14 1.07 1.06 1.10 1.11 1.06 1.02 1.02 1.02 1.02 0.99 0.89 0.82 0.76 0.74 0.74
0.99 1.11 1.19 1.19 1.18 1.25 1.28 1.35 1.46 1.57 1.60 1.54 1.54 1.47 1.57 1.43 1.35 1.33 1.34 1.28 1.30 1.30 1.26 1.16 1.18 1.17 1.13 1.07 1.07 1.06 1.08 1.06 1.03 1.00 0.99 0.97 0.93 0.85 0.82 0.79 0.74 0.75 0.73
1.03 1.07 1.09 1.20 1.33 1.52 1.48 1.45 1.45 1.59 1.80 1.78 1.68 1.59 1.79 1.57 1.52 1.48 1.43 1.39 1.34 1.20 1.17 1.19 1.12 1.09 1.11 1.11 1.07 1.03 1.04 1.03 1.01 0.98 0.92 0.93 0.89 0.87 0.78 0.73 0.75 0.75 0.72
1.00 0.97 0.95 1.23 1.35 1.40 1.47 1.42 1.44 1.53 1.58 1.81 1.75 1.72 1.69 1.67 1.66 1.64 1.54 1.48 1.38 1.15 1.15 1.11 1.04 1.02 1.07 1.03 1.00 1.06 1.06 1.09 1.00 0.94 0.84 0.86 0.89 0.86 0.78 0.78 0.73 0.71 0.69
0.96 0.93 0.99 1.17 1.27 1.38 1.36 1.32 1.37 1.45 1.47 1.42 1.55 1.69 1.72 1.60 1.66 1.65 1.52 1.43 1.29 1.10 1.10 1.09 1.04 1.05 1.07 1.03 1.06 1.06 1.10 1.00 0.91 0.85 0.80 0.86 0.83 0.80 0.79 0.75 0.73 0.70 0.68
0.80 0.85 0.96 1.13 1.19 1.21 1.28 1.35 1.32 1.38 1.39 1.46 1.56 1.61 1.62 1.55 1.61 1.61 1.56 1.45 1.26 1.15 1.13 1.11 1.04 1.06 1.05 1.08 1.11 1.07 1.04 0.95 0.86 0.79 0.81 0.85 0.81 0.78 0.76 0.76 0.75 0.74 0.72
0.82 0.83 0.91 1.06 1.15 1.17 1.17 1.25 1.34 1.36 1.42 1.47 1.56 1.65 1.58 1.52 1.63 1.62 1.60 1.43 1.36 1.34 1.10 1.07 1.07 1.08 1.02 1.05 1.08 1.06 0.98 0.86 0.82 0.79 0.83 0.84 0.82 0.80 0.78 0.77 0.75 0.72 0.73
0.80 0.74 0.85 0.99 1.05 1.11 1.16 1.26 1.36 1.39 1.49 1.49 1.52 1.55 1.50 1.46 1.47 1.54 1.55 1.38 1.22 1.30 1.10 1.02 0.98 0.98 1.04 1.09 1.10 1.05 0.94 0.90 0.81 0.79 0.84 0.84 0.81 0.83 0.81 0.78 0.75 0.71 0.71
0.78 0.77 0.79 0.92 0.98 1.01 1.06 1.21 1.32 1.36 1.43 1.51 1.53 1.50 1.48 1.47 1.50 1.55 1.50 1.30 1.10 1.14 1.06 1.02 1.02 1.00 1.03 1.05 1.03 0.98 0.97 0.92 0.88 0.81 0.83 0.85 0.84 0.84 0.82 0.78 0.75 0.73 0.72
0.82 0.83 0.79 0.83 0.90 0.96 1.00 1.13 1.27 1.36 1.45 1.52 1.51 1.48 1.51 1.51 1.52 1.50 1.45 1.21 1.01 1.05 1.09 0.99 0.98 0.98 0.97 0.99 1.01 1.01 1.00 0.95 0.92 0.82 0.81 0.83 0.86 0.86 0.82 0.78 0.76 0.76 0.79
0.83 0.86 0.78 0.79 0.88 0.92 0.98 1.21 1.30 1.36 1.49 1.51 1.54 1.51 1.51 1.55 1.58 1.52 1.38 1.14 1.00 0.97 0.91 0.89 0.94 0.98 0.96 1.14 1.11 1.04 0.98 0.96 0.95 0.89 0.82 0.83 0.85 0.84 0.83 0.78 0.78 0.82 0.83
0.89 0.85 0.83 0.79 0.85 0.91 1.03 1.22 1.28 1.33 1.46 1.52 1.57 1.57 1.53 1.60 1.57 1.40 1.26 1.01 0.98 0.98 0.89 0.87 0.93 0.97 0.99 1.01 1.00 1.03 0.98 0.98 0.98 0.94 0.84 0.84 0.83 0.83 0.82 0.82 0.84 0.83 0.84
0.98 0.89 0.83 0.75 0.81 0.89 1.06 1.21 1.27 1.34 1.40 1.46 1.55 1.62 1.61 1.60 1.53 1.41 1.23 1.06 1.01 0.98 0.93 0.90 0.91 0.98 0.94 0.94 0.97 1.05 1.03 1.02 1.02 0.95 0.86 0.85 0.84 0.84 0.84 0.85 0.84 0.85 0.85
1.01 0.96 0.85 0.72 0.80 0.88 1.07 1.18 1.26 1.36 1.39 1.45 1.49 1.55 1.62 1.56 1.51 1.42 1.29 1.11 1.04 1.02 1.01 0.93 0.84 1.01 0.93 0.95 0.98 1.02 1.09 1.04 1.07 0.98 0.88 0.86 0.88 0.88 0.86 0.86 0.87 0.88 0.87
0.99 0.92 0.84 0.66 0.76 0.86 0.95 1.03 1.13 1.23 1.32 1.38 1.46 1.51 1.53 1.54 1.50 1.38 1.28 1.14 1.07 0.96 0.92 0.90 0.89 0.91 0.90 1.00 0.94 0.98 1.07 1.12 1.08 1.06 0.98 0.93 0.92 0.93 0.93 0.91 0.90 0.89 0.91
0.96 0.94 0.86 0.67 0.72 0.82 0.91 1.06 1.18 1.29 1.34 1.38 1.43 1.47 1.49 1.48 1.49 1.40 1.33 1.23 1.08 0.91 0.88 0.84 0.88 0.85 0.89 0.96 0.89 0.92 0.84 0.97 1.05 1.07 1.07 1.02 0.99 1.01 0.97 0.96 0.93 0.89 0.91
0.92 0.91 0.86 0.68 0.68 0.79 0.89 1.13 1.21 1.29 1.32 1.31 1.35 1.41 1.43 1.44 1.49 1.49 1.39 1.31 1.16 1.02 0.97 0.92 0.92 0.86 0.75 0.91 0.97 0.89 0.82 0.79 0.90 1.03 1.01 1.00 1.00 0.96 0.96 0.93 0.90 0.88 0.89
0.92 0.95 0.91 0.76 0.66 0.76 0.87 1.03 1.09 1.10 1.12 1.26 1.33 1.37 1.44 1.44 1.42 1.46 1.42 1.37 1.23 1.10 1.09 1.09 1.05 1.00 0.92 0.84 0.96 1.04 1.02 0.91 0.79 0.76 0.91 0.97 0.98 0.92 0.90 0.90 0.88 0.88 0.89
0.94 0.95 0.94 0.82 0.65 0.71 0.80 0.91 1.03 1.05 1.13 1.22 1.29 1.32 1.35 1.44 1.40 1.37 1.40 1.39 1.30 1.23 1.14 1.18 1.14 1.06 1.00 0.93 0.91 0.99 0.99 0.91 0.93 0.82 0.78 0.82 0.91 0.92 0.93 0.91 0.92 0.95 0.96
0.97 0.97 0.96 0.83 0.67 0.70 0.76 0.84 0.91 0.96 1.00 1.04 1.13 1.19 1.27 1.37 1.39 1.40 1.40 1.38 1.35 1.29 1.24 1.19 1.19 1.15 1.08 1.05 0.99 0.97 0.88 0.88 0.87 0.91 0.85 0.84 0.81 0.87 0.96 1.02 1.05 1.05 1.07
Wind_Speed
13 13 13 13 13 13 14 14 15 16 17 18 19 20 20 18 17 17 17 16 15 15 15 15 15 15 14 13 13 12 11 9 10 10 9 9 8 7 7 6 6 6 6
12 13 13 14 14 15 15 15 15 15 16 17 20 21 21 20 19 18 18 17 16 16 15 16 16 16 15 15 14 13 11 10 11 10 10 9 7 7 6 6 5 5 6
14 14 15 15 16 16 16 16 17 17 17 18 19 21 22 22 21 20 19 19 17 17 16 17 17 17 16 16 15 14 13 12 11 10 9 8 7 6 5 4 4 5 6
14 14 15 16 17 18 19 19 19 19 19 18 19 20 22 23 23 22 21 20 19 19 18 18 18 18 17 17 16 15 14 12 12 11 10 8 6 6 4 5 5 6 7
13 13 13 15 16 18 20 21 21 21 21 21 20 20 22 23 24 23 22 21 21 20 20 20 20 19 19 17 16 15 14 13 12 11 10 9 7 6 6 6 6 7 7
12 13 14 15 16 18 20 22 23 23 24 24 23 23 22 23 23 23 23 22 21 21 21 22 21 20 19 18 17 16 15 14 12 11 9 8 7 7 7 7 7 7 8
14 15 16 17 17 18 20 22 24 26 27 27 26 25 24 23 23 23 22 22 22 22 22 23 22 21 19 19 18 16 15 14 13 11 10 8 8 8 8 8 8 8 8
15 16 17 18 19 19 21 23 25 27 30 30 28 27 28 23 23 23 22 22 22 23 23 23 23 21 20 19 18 17 15 14 12 11 10 9 10 9 9 9 8 8 9
15 16 17 19 21 20 20 22 24 26 31 34 31 24 27 23 23 22 22 20 20 23 24 24 24 22 20 19 19 17 15 13 12 11 11 11 10 10 9 9 9 9 9
15 16 17 17 18 19 19 21 21 22 19 25 24 28 21 24 24 24 23 20 20 21 24 25 24 22 21 19 19 17 16 14 12 12 12 12 11 10 10 10 10 10 10
15 16 15 14 14 16 17 19 20 22 24 26 25 23 23 21 26 27 23 21 20 20 24 25 24 23 22 20 18 17 15 14 13 13 13 13 12 11 11 11 11 11 10
15 15 13 12 12 13 15 17 18 20 22 23 24 26 27 22 26 29 25 22 20 21 24 25 24 23 22 20 19 16 15 14 14 14 13 13 13 12 11 11 11 11 10
14 13 12 12 12 12 13 16 17 19 22 24 25 26 25 23 32 28 25 24 22 24 24 25 24 24 23 21 19 16 14 15 15 15 14 14 14 13 12 12 11 11 10
13 12 11 12 12 13 14 15 17 19 21 23 25 27 26 24 28 27 28 24 23 24 26 26 24 24 23 21 19 17 16 15 15 15 15 15 14 13 13 12 12 11 11
12 12 12 12 13 13 14 15 16 17 19 22 25 28 27 27 27 31 30 26 25 26 26 26 25 24 24 22 20 19 18 16 16 16 16 15 15 14 13 13 12 11 11
12 12 11 12 13 13 14 15 15 16 18 21 23 26 28 27 27 32 30 26 26 28 27 27 26 24 23 22 20 20 19 17 16 16 16 16 15 15 14 13 13 12 11
13 12 12 12 13 13 13 13 13 15 16 20 22 27 29 28 30 34 29 26 26 28 29 28 26 25 23 21 20 21 19 18 17 17 17 17 16 15 15 15 14 13 12
11 11 12 12 12 12 12 12 13 13 14 16 19 26 31 33 33 31 28 26 26 27 28 28 28 26 24 23 22 21 20 19 19 18 18 18 18 17 16 16 15 14 13
12 11 11 11 11 11 10 11 12 13 15 13 13 19 28 36 34 28 26 27 27 25 25 27 28 27 25 24 23 21 21 20 20 19 20 20 19 18 18 17 17 16 15
12 10 10 10 10 10 10 10 11 12 15 15 15 22 27 30 30 26 26 27 28 25 24 27 29 28 26 25 23 22 22 21 21 20 21 21 20 20 19 19 19 18 18
12 10 9 9 8 8 9 10 11 13 16 16 18 23 24 29 29 28 28 28 27 26 26 25 29 29 27 27 24 22 22 23 22 22 22 22 22 21 21 21 21 21 20
13 11 9 8 8 8 8 9 12 13 16 17 19 22 26 28 31 31 29 30 29 28 27 28 29 28 28 28 25 24 22 22 23 24 23 23 23 24 23 23 23 23 23
14 12 9 8 8 8 8 8 10 13 14 17 20 25 26 27 30 31 31 32 31 30 29 28 30 30 28 29 28 25 23 23 23 24 25 25 26 25 26 25 26 26 26
15 12 10 9 9 7 7 9 11 11 13 15 16 22 29 27 31 32 29 31 32 31 30 31 30 30 29 29 28 28 26 24 25 24 26 28 29 28 28 28 28 29 29
16 14 11 9 9 8 7 8 11 11 11 12 14 18 25 30 28 33 31 30 33 32 32 32 31 30 30 29 28 28 25 25 25 23 23 24 28 30 30 30 29 29 29
16 15 12 10 9 8 8 8 9 11 11 11 12 15 23 28 28 30 30 29 32 34 34 33 33 32 32 31 30 30 28 25 25 24 24 23 23 25 28 28 28 29 29
Wind_Direction
265 260 260 256 250 249 247 244 240 236 231 226 222 219 216 213 210 208 206 206 205 206 206 206 204 202 199 191 181 176 173 172 165 159 153 147 141 135 127 120 112 107 105
263 260 260 256 252 248 246 242 237 232 228 225 222 219 216 215 212 209 207 207 208 208 208 205 201 198 196 191 188 186 181 174 168 163 157 151 148 144 136 129 121 118 115
263 263 260 258 255 251 248 243 237 232 229 225 222 219 217 216 214 213 212 212 210 209 206 203 200 196 195 193 191 189 183 180 176 175 170 167 162 160 154 150 140 131 128
262 263 263 261 258 252 247 243 237 231 227 224 222 221 219 217 217 216 215 212 211 209 206 202 199 197 195 193 190 188 186 185 184 184 183 181 185 188 189 171 156 147 138
259 262 262 265 261 254 247 242 236 231 228 225 222 221 219 218 217 216 213 213 211 209 207 203 200 196 194 191 190 190 189 187 187 186 189 191 191 193 182 173 163 156 151
259 265 267 269 266 258 248 241 235 232 229 226 224 220 218 215 214 214 214 213 212 210 207 202 198 196 194 192 191 190 189 189 187 190 190 196 201 186 175 167 158 155 155
263 269 270 269 269 260 249 241 236 234 232 228 224 219 215 212 212 211 211 212 210 207 204 201 197 195 193 191 192 192 192 194 194 197 201 194 191 182 179 173 168 163 160
267 273 272 269 269 261 251 244 239 237 234 226 222 219 211 209 210 210 210 209 209 206 202 199 196 193 192 192 196 197 197 198 199 202 202 197 188 185 178 175 173 167 165
271 278 278 272 268 258 252 246 243 241 244 224 218 217 206 215 205 204 200 202 205 204 201 198 196 193 194 197 196 196 196 196 199 201 198 190 185 182 181 181 176 172 168
274 282 284 278 271 257 252 247 244 238 240 215 211 212 212 218 211 205 199 202 200 199 199 196 194 193 193 195 196 198 198 202 207 204 199 190 187 185 185 181 178 174 170
276 282 286 280 271 256 254 248 242 238 236 235 229 214 209 220 217 205 201 199 198 199 195 193 192 193 194 193 194 196 201 206 204 196 193 188 186 183 180 177 176 175 175
275 280 280 277 270 260 254 249 243 241 235 232 228 225 212 219 217 205 200 200 200 195 194 192 191 191 192 195 197 201 206 206 200 194 191 187 184 182 179 178 178 178 177
271 275 274 271 266 263 258 252 246 243 237 232 224 219 219 228 212 203 201 202 203 198 195 193 195 198 196 198 201 203 206 199 195 192 191 187 186 185 185 185 184 183 182
268 269 271 267 264 264 262 256 251 244 237 227 221 219 220 217 211 205 199 201 201 199 200 198 195 194 197 200 202 204 198 195 193 192 192 190 190 191 190 188 189 188 189
264 267 267 265 265 265 264 260 254 242 235 227 223 221 219 216 214 204 201 203 204 202 199 197 197 196 198 202 203 202 200 197 196 196 195 195 196 196 195 195 195 195 197
259 265 269 266 268 265 265 261 253 240 233 224 220 217 214 212 207 194 198 203 204 201 199 199 196 196 199 201 204 203 200 200 200 199 199 200 201 201 201 202 202 203 207
257 263 267 268 268 265 267 254 246 237 232 224 222 216 211 206 201 194 200 203 201 200 200 200 199 199 201 204 207 205 205 205 206 206 204 205 206 208 209 209 209 213 217
255 262 268 268 266 264 262 253 240 237 227 220 221 218 212 199 191 193 199 198 196 197 199 201 203 202 205 207 206 208 210 210 210 211 211 212 213 213 214 214 217 221 227
253 262 266 265 265 261 257 246 238 232 217 214 212 182 180 184 185 191 195 195 195 197 202 203 206 204 207 207 207 212 214 214 216 217 216 218 217 218 218 220 224 230 235
248 259 265 263 262 256 250 238 232 220 207 202 189 178 175 182 190 195 197 199 200 205 206 208 208 211 210 209 210 216 218 220 221 221 220 220 221 222 224 228 233 238 242
241 248 257 256 253 247 243 234 227 215 206 203 199 198 195 199 200 203 204 204 206 209 210 209 207 210 212 212 213 218 222 224 225 227 224 223 225 229 232 237 240 244 247
230 240 249 249 246 245 244 238 226 210 210 211 210 208 210 211 210 211 211 210 211 213 213 214 210 212 215 215 218 220 224 228 230 228 228 229 233 235 239 242 245 248 250
226 232 240 242 241 245 242 230 212 212 217 220 223 219 215 214 212 212 215 215 215 215 215 214 213 215 220 220 221 226 227 229 229 232 234 236 238 241 244 247 250 252 253
222 227 234 239 237 240 237 223 215 219 224 228 231 223 217 219 216 215 215 215 217 217 218 218 217 219 220 222 225 228 229 231 236 242 243 241 242 245 248 250 253 255 255
217 222 228 235 235 235 235 225 222 227 231 236 233 225 218 218 213 212 219 220 219 220 218 218 219 222 224 224 227 227 229 235 237 241 243 245 245 247 250 253 254 256 257
217 220 225 228 231 232 232 231 227 230 235 234 231 226 219 213 213 213 218 222 221 221 221 222 224 227 226 227 230 230 233 237 236 242 242 246 250 251 251 252 254 256 256